Location: Banios
(43.0451°N, 0.2335°E)
Time: 00:19:44
(UTC+00:00)

Daily predictions for brighter satellites

Satellite Brightness Start Highest point End
(mag) Time Altitude Azimuth Time Altitude Azimuth Time Altitude Azimuth
Cosmos 2278 Rocket 3.5 04:02:53 37° E 04:02:53 37° E 04:07:11 10° SE
Cosmos 2219 Rocket 4.2 04:13:24 19° NNE 04:13:24 19° NNE 04:14:56 10° NNE
Cosmos 2237 Rocket 3.3 04:10:08 39° ESE 04:10:29 39° ESE 04:15:44 10° NE
NOSS 0 Rocket 4.5 04:12:13 54° E 04:12:13 54° E 04:17:54 10° NE
Cosmos 2333 Rocket 4.1 04:28:09 19° N 04:28:09 19° N 04:29:51 10° NNE
ATLAS CENTAUR R/B 4.0 04:25:11 16° E 04:25:11 16° E 04:26:55 10° ENE
USA 215 4.2 04:19:56 10° NE 04:24:49 33° N 04:24:49 33° N
Cosmos 1937 Rocket 4.1 04:33:45 51° SE 04:33:45 51° SE 04:37:46 10° SSE
CZ-2C R/B 3.6 04:35:49 19° SE 04:35:49 19° SE 04:37:35 10° ESE
COSMO-SKYMED 1 4.1 04:31:00 10° SE 04:34:53 33° ENE 04:35:45 30° NE
Atlas Centaur 2 3.9 04:34:15 29° S 04:35:22 31° S 04:42:17 10° ESE
Cosmos 1980 3.7 04:43:48 74° SSE 04:44:13 79° ESE 04:49:53 10° NNE
Cosmos 540 Rocket 3.6 04:45:13 70° ENE 04:45:13 70° ENE 04:49:57 10° NNE
COSMOS 2428 4.1 04:48:02 27° N 04:48:02 27° N 04:50:46 10° NNE
USA 305 4.2 04:46:26 37° SE 04:46:26 37° SE 04:50:06 10° ENE
USA 308 4.2 04:47:49 37° SE 04:47:49 37° SE 04:51:45 10° ENE
Lacrosse 5 rocket 2.7 04:50:23 33° ESE 04:50:23 33° ESE 04:52:33 10° ESE
Cosmos 1513 Rocket 4.3 04:45:42 10° S 04:52:00 86° W 04:58:15 10° N
CZ-4B R/B 4.2 04:50:27 10° SSE 04:50:56 14° SSE 04:50:56 14° SSE
SL-8 R/B 4.3 04:55:27 47° SSE 04:55:27 47° SSE 04:59:10 10° SE
SJ-12 4.4 04:51:34 10° NNE 04:55:40 58° E 04:55:46 58° ESE
USA 306 3.7 04:58:05 46° SE 04:58:15 47° SE 05:02:19 10° ENE
USA 267 4.2 04:52:51 10° S 04:57:11 30° SSW 04:57:11 30° SSW
BREEZE M DEB (TANK) 4.4 05:02:55 15° ESE 05:02:55 15° ESE 05:04:02 10° E
ATLAS 5 CENTAUR R/B 2.7 05:03:45 39° SE 05:03:45 39° SE 05:07:09 10° SE
Cosmos 1891 Rocket 4.3 04:56:54 10° SSW 05:03:02 69° W 05:09:07 10° N
Cosmos 1626 Rocket 4.1 05:01:47 19° N 05:04:54 58° E 05:09:17 10° SSE
Cosmos 1400 Rocket 3.8 05:01:16 10° S 05:05:12 47° E 05:09:11 10° NNE
Cosmos 1689 Rocket 4.4 05:04:46 10° SE 05:07:06 22° ENE 05:07:40 21° NE
SL-4 R/B 2.3 05:07:49 59° E 05:07:49 59° E 05:11:14 10° ENE
Cosmos 1464 Rocket 3.8 05:01:36 10° SSW 05:07:40 70° W 05:13:50 10° N
Cosmos 1908 3.6 05:05:32 10° S 05:09:16 62° E 05:13:03 10° NNE
CZ-4B R/B 3.5 05:05:56 10° NNE 05:09:29 50° E 05:13:09 10° S
CENTAUR R/B 4.0 05:05:30 10° S 05:10:34 33° ESE 05:16:24 10° NE
Cosmos 44 Rocket 3.7 05:14:52 48° SW 05:14:52 48° SW 05:19:26 10° S
Cosmos 1072 Rocket 4.5 05:08:22 10° SSW 05:14:28 57° WNW 05:20:42 10° N
METEOR-M 4.2 05:12:31 10° N 05:17:41 50° WNW 05:17:44 50° WNW
Cosmos 1340 2.9 05:17:50 40° N 05:19:03 67° E 05:22:47 10° SSE
Meteor 1-16 Rocket 4.3 05:15:44 10° S 05:21:39 89° W 05:27:37 10° N
deb Chang Zheng 4 3.4 05:18:04 10° NNE 05:22:20 87° E 05:26:34 10° SSW
SKYMED 2 3.4 05:18:29 10° S 05:22:49 75° WSW 05:24:21 39° NNW
SWAS 4.3 05:21:22 40° SSW 05:22:50 89° WNW 05:27:08 10° NNE
GEOS 3 Rocket 4.1 05:26:01 10° SE 05:31:17 60° NE 05:35:32 16° NNW
Lacrosse 4 Rocket 1.3 05:29:22 27° SSW 05:31:39 85° WNW 05:36:01 10° NNE
Meteor 2-13 Rocket 4.4 05:27:07 10° NNW 05:33:13 63° W 05:39:15 10° S
Cosmos 841 Rocket 3.7 05:32:40 39° W 05:33:38 44° WNW 05:38:35 10° N
Cosmos 1092 Rocket 4.1 05:28:03 10° N 05:34:13 79° E 05:40:24 10° S
Cosmos 1943 Rocket 3.5 05:29:25 10° N 05:34:43 38° ENE 05:39:58 10° SE
YAOGAN 6 3.6 05:31:45 10° NNE 05:35:22 50° E 05:38:57 10° S
Cosmos 2369 Rocket 4.1 05:32:38 10° N 05:37:12 25° NE 05:41:45 10° ESE
USA 238 DEB 3.9 05:31:16 10° SSW 05:37:45 70° ESE 05:44:32 10° NE
Cosmos 1953 4.3 05:40:32 16° NNW 05:40:32 16° NNW 05:41:28 10° N
USA 238 3.9 05:31:23 10° SSW 05:37:51 69° ESE 05:44:38 10° NE
CZ-2C R/B 4.1 05:33:20 10° SE 05:38:05 36° ENE 05:42:55 10° N
ADEOS 4.0 05:37:19 10° N 05:42:05 37° WNW 05:44:51 21° WSW
BREEZE-M DEB (TANK) 2.6 05:40:51 34° SW 05:42:11 83° SSE 05:50:12 10° ENE
BREEZE-M (TANK) 1.6 05:43:28 59° ESE 05:43:28 59° ESE 05:45:06 10° ESE
SL-16 R/B 2.3 05:39:07 10° SSW 05:44:46 81° ESE 05:50:28 10° NNE
Cosmos 2150 Rocket 4.2 05:40:01 10° NNW 05:45:25 79° ENE 05:50:50 10° SSE
Cosmos 2278 Rocket 2.9 05:44:48 29° W 05:45:48 31° WSW 05:50:41 10° SSW
Nadezhda 4 Rocket 4.0 05:40:53 10° NNW 05:46:45 51° W 05:52:37 10° SSW
Cosmos 1602 Rocket 3.5 05:42:27 10° NNW 05:46:54 69° W 05:51:20 10° S
Cosmos 2034 Rocket 4.2 05:41:51 10° SSW 05:47:58 49° WNW 05:54:08 10° N
BREEZE-M DEB (TANK) 3.5 05:51:30 20° N 05:51:30 20° N 05:53:19 10° NE
Okean O Rocket 3.9 05:49:06 10° NE 05:52:49 27° E 05:56:29 10° SSE
Cosmos 2219 Rocket 4.0 05:55:08 13° NW 05:55:08 13° NW 05:56:57 10° NNW
Cosmos 2237 Rocket 2.8 05:52:03 23° W 05:54:35 33° NW 05:59:43 10° N
H-2A R/B 2.7 05:52:59 10° N 05:56:38 53° WNW 06:00:16 10° SSW
MOS 1 Rocket 3.5 05:51:59 10° S 05:56:45 48° W 06:01:17 10° NNW
Cosmos 1315 Rocket 3.2 05:54:44 10° S 05:58:36 63° E 06:02:29 10° NNE
Cosmos 1703 3.7 05:56:45 21° NW 05:58:47 37° W 06:02:23 10° SSW
Cosmos 1634 Rocket 3.9 05:53:59 10° S 06:00:08 84° W 06:06:22 10° N
Cosmos 2084 Rocket 3.5 05:57:21 18° NW 06:00:33 89° SW 06:05:05 10° SE
FALCON 9 DEB 3.9 05:58:05 10° SSW 06:01:05 46° SE 06:04:05 10° ENE
Meteor 1-11 4.1 05:56:46 10° NNW 06:02:22 82° W 06:07:57 10° S
ATLAS CENTAUR R/B 1.5 06:01:25 24° WSW 06:03:06 39° NW 06:06:35 10° NNE
Cosmos 1825 Rocket 3.9 05:58:38 10° N 06:03:07 71° E 06:07:33 10° SSE
Cosmos 2098 Rocket 3.5 05:58:29 10° N 06:04:20 84° E 06:08:54 10° S
ERS-2 2.9 06:02:46 10° SSW 06:06:00 30° W 06:07:37 21° NW
SJ-7 4.4 06:05:55 10° N 06:09:59 58° WNW 06:13:59 10° SSW
COSMO-SKYMED 1 3.7 06:07:39 10° SSW 06:11:06 23° W 06:12:59 17° WNW
Cosmos 2298 Rocket 4.1 06:05:59 10° NNW 06:11:13 58° WSW 06:16:25 10° S
CZ-2C R/B 2.9 06:10:08 12° WSW 06:13:14 24° S 06:16:33 10° SE
Cosmos 1346 Rocket 2.7 06:10:42 10° NNW 06:14:39 66° W 06:18:36 10° S
Cosmos 1300 2.6 06:13:04 10° SSW 06:16:50 61° W 06:20:37 10° N
Cosmos 2292 Rocket 4.1 06:14:20 10° N 06:17:14 43° E 06:20:30 10° SSE
USA 307 3.2 06:15:32 15° WSW 06:18:50 47° NNW 06:22:56 10° NE
Cosmos 1125 Rocket 3.5 06:15:25 10° NNW 06:20:43 71° WSW 06:26:00 10° S
Envisat 3.1 06:16:19 10° N 06:21:16 55° WNW 06:26:12 10° SSW
Cosmos 2297 3.8 06:16:46 10° NNW 06:22:27 61° WSW 06:28:04 10° S
Cosmos 2026 Rocket 4.1 06:16:46 10° NNW 06:22:59 58° W 06:29:12 10° S
Atlas Centaur 2 4.3 06:17:41 10° WSW 06:24:09 29° S 06:31:07 10° SE
H-2A R/B 2.7 06:21:26 10° NNE 06:25:59 88° ESE 06:30:28 10° SSW
USA 305 3.4 06:22:36 13° W 06:26:08 41° NNW 06:30:10 10° NE
AQUARIUS 4.4 06:21:50 10° NNE 06:26:22 77° ESE 06:30:51 10° S
Cosmos 1953 Rocket 3.6 06:22:45 10° N 06:27:07 84° E 06:31:28 10° S
Lacrosse 5 rocket 3.0 06:26:02 12° W 06:27:27 15° WSW 06:29:34 10° SSW
USA 308 3.4 06:24:01 12° W 06:27:46 42° NNW 06:31:52 10° NE
Cosmos 2228 3.0 06:24:35 10° SSW 06:28:45 55° W 06:32:56 10° N
NOSS 3-2 (A) 3.7 06:28:49 10° WSW 06:34:17 46° NW 06:40:34 10° NNE
Cosmos 1606 Rocket 3.7 06:32:29 10° SSW 06:36:41 51° WNW 06:40:55 10° N
Cosmos 1689 Rocket 3.9 06:36:32 10° SW 06:38:07 14° W 06:39:32 11° WNW
USA 306 3.6 06:34:24 10° W 06:38:20 36° NNW 06:42:16 10° NE
Cosmos 1655 Rocket 4.3 06:35:02 10° N 06:41:20 78° E 06:47:37 10° SSE
NOAA 6 4.3 06:38:43 10° N 06:43:43 49° WNW 06:48:41 10° SW
FALCON 9 DEB 2.9 06:40:56 10° WSW 06:44:01 61° NNW 06:47:05 10° NE
SWARM A 4.4 06:41:46 10° N 06:45:06 77° E 06:48:25 10° S
NOSS 3-2 (C) 3.4 06:40:52 10° SW 06:46:26 60° NW 06:52:50 10° NNE
SL-4 R/B 2.9 06:43:41 10° W 06:47:11 32° NNW 06:50:56 10° NE
Cosmos 1603 4.1 06:42:09 10° SSW 06:47:42 69° ESE 06:53:19 10° NNE
Cosmos 1939 Rocket 3.1 06:44:32 10° NNE 06:48:26 71° E 06:52:17 10° S
FALCON 9 DEB 2.9 06:47:12 10° WSW 06:50:19 62° NNW 06:53:25 10° NE
Cosmos 1892 2.7 06:47:10 10° N 06:51:01 82° W 06:54:52 10° S
Spot 2 4.4 06:47:20 10° N 06:51:05 38° WNW 06:54:53 10° SW
CZ-2D R/B 4.3 06:50:27 10° NNE 06:54:10 52° E 06:57:52 10° S
NOAA 12 4.2 06:50:39 10° N 06:55:49 55° WNW 07:00:58 10° SSW
